SL-16 R/B

Satellite information

Favourite Embed

Satellite Type and Status

ROCKET BODYIN ORBIT

Key statistics

Satellite SL-16 R/B at a glance.

Uptime

13989

Days in orbit

Revolutions

≈ 14.2

Per day

Orbit

LEO

Low Earth Orbit

Inclination

71.0

Latest

Satellite identification and parameters

Extended collection of information and parameters for SL-16 R/B.

Object identification

Identified? True

Debris? False

Object name: SL-16 R/B

International designator: 1987-041B

Object number (NORAD): 17974

Object ID (CCSDS): 17974

Country: COMMONWEALTH OF INDEPENDENT STATES (CIS)

Current information (Y/N): Y

RCS size: LARGE

Orbital parameters

Period: 101.58 minutes

Inclination: 71.0068 deg

SMA: 7211.621 km

Apoapsis: 842.476 km

Periapsis: 824.496 km

RAAN: 79.2711 deg

Eccentricy: 0.00124659

Argument of periapsis: 147.1834 deg

Mean anomaly: 311.6979 deg

Mean motion: 14.17598993 rev/day

Mean motion (dot): 0.00000153 rev/day2

B* drag term: 0.000098568968 1/REarth

Two-line elements (TLE)

Creation date: Aug. 29, 2025, 2:15 a.m.

Reference frame: TEME

Reference center: EARTH

Epoch: Aug. 28, 2025, 9:42 p.m. UTC

TLE line 0: 0 SL-16 R/B

TLE line 1: 1 17974U 87041B 25240.90419661 .00000153 00000-0 98569-4 0 9997

TLE line 2: 2 17974 71.0068 79.2711 0012466 147.1834 311.6979 14.17598993980768

Live tracking on map

Real-time ground track for satellite SL-16 R/B.

In-orbit conjunctions

A list of the most updated potential collisions computed for object SL-16 R/B.

Target Orbit TCA Probability of collision Miss distance Type
FENGYUN 1C DEB SSO 2025-08-08 22:33:48 0.002484227 45.0 (m) DEBRIS
FENGYUN 1C DEB SSO 2025-01-06 19:27:38 0.004406191 49.0 (m) DEBRIS
FENGYUN 1C DEB SSO 2024-10-29 02:23:07 0.0001650424 342.0 (m) DEBRIS
NOAA 16 DEB SSO 2024-10-14 20:10:48 0.0001426608 713.0 (m) DEBRIS
CZ-4 DEB SSO 2024-08-12 20:19:00 0.0001470319 106.0 (m) DEBRIS

Associated space launch

Second generation ELING satellite

SL-16 R/B was lifted into orbit during the mission ‘Zenit-2 | Tselina-2 4’, on board a Zenit-2 space rocket.

The launch took place on May 13, 1987, 5:40 a.m. from 45/1.

For more information about the launch, click the button.

Launch to space Zenit-2 | Tselina-2 4
Zenit-2 | Tselina-2 4

Agency: N/A

Status: Launch Successful

Launch date: May 13, 1987, 5:40 a.m. UTC

Rocket: Zenit-2

Launch pad: 45/1

Location: Baikonur Cosmodrome, Republic of Kazakhstan

...

Latest news about this satellite

There are no fresh news available about this satellite. Check back as we update our databases every day.


Newsletter sign-up

Weekly statistics, charts and insights to help you stay on top of the space industry.